Weather History for Wichita Falls, TX

Change the Weather History Date:

Friday, August 22, 2014

  Actual Average (KSPS) Record (KSPS)
Temperature  
Mean Temperature 90 °F 84 °F  
Max Temperature 104 °F 96 °F 108 °F (1980)
Min Temperature 76 °F 71 °F 60 °F (1949)
Cooling Degree Days 25 18  
Month to date cooling degree days 432  
Year to date cooling degree days 1788  
Growing Degree Days 40 (Base 50)    
Moisture  
Dew Point 56 °F    
Average Humidity 37    
Maximum Humidity 69    
Minimum Humidity 12    
Precipitation  
Precipitation 0.00 in 0.08 in 2.25 in (1950)
Month to date precipitation 1.69  
Year to date precipitation 18.92  
Sea Level Pressure  
Sea Level Pressure 29.97 in    
Wind  
Wind Speed 8 mph (South)    
Max Wind Speed 16 mph    
Max Gust Speed 26 mph    
Visibility 10 miles    
Events      
T = Trace of Precipitation, MM = Missing Value Source: NWS Daily Summary

Daily Weather History Graph

Daily Weather History Graph

Search for Another Location

Airport:

Trip Planner

Search our weather history database for the weather conditions in past years. The results will help you decide how hot, cold, wet, or windy it might be!

Date:

Astronomy

Aug. 22, 2014 Rise Set
Actual Time 7:00 AM CDT 8:12 PM CDT
Civil Twilight 6:34 AM CDT 8:38 PM CDT
Nautical Twilight 6:03 AM CDT 9:09 PM CDT
Astronomical Twilight 5:31 AM CDT 9:41 PM CDT
Moon 4:28 AM CDT (8/22) 6:19 PM CDT (8/22)
Length of Visible Light 14h 03m
Length of Day
13h 11m
Waning Crescent, 7% of the Moon is Illuminated
Aug 22
Waning Crescent
Aug 25
New
Sep 2
First Quarter
Sep 8
Full
Sep 15
Last Quarter

Hourly Weather History & Observations

Time (CDT) Temp. Heat Index Dew Point Humidity Pressure Visibility Wind Dir Wind Speed Gust Speed Precip Events Conditions
12:15 AM 83.1 °F 82.6 °F 57.2 °F 41% 29.95 in 10.0 mi South 5.8 mph - N/A   Clear
12:35 AM 83.3 °F 82.6 °F 56.7 °F 40% 29.95 in 10.0 mi South 5.8 mph - N/A   Clear
12:55 AM 82.2 °F 81.9 °F 57.2 °F 42% 29.95 in 10.0 mi SSE 8.1 mph - N/A   Clear
1:15 AM 81.0 °F 81.0 °F 57.2 °F 44% 29.95 in 10.0 mi SSE 8.1 mph - N/A   Clear
1:35 AM 80.6 °F 80.8 °F 57.4 °F 45% 29.95 in 10.0 mi South 6.9 mph - N/A   Clear
2:15 AM 79.3 °F - 57.7 °F 47% 29.95 in 10.0 mi South 4.6 mph - N/A   Clear
2:35 AM 79.5 °F - 57.7 °F 47% 29.95 in 10.0 mi South 5.8 mph - N/A   Clear
2:55 AM 79.7 °F - 58.1 °F 47% 29.95 in 10.0 mi South 8.1 mph - N/A   Clear
3:15 AM 80.8 °F 81.1 °F 58.5 °F 46% 29.96 in 10.0 mi SSE 9.2 mph - N/A   Clear
3:35 AM 79.9 °F - 59.0 °F 49% 29.97 in 10.0 mi SE 9.2 mph - N/A   Clear
3:55 AM 79.2 °F - 59.2 °F 50% 29.97 in 10.0 mi SSE 6.9 mph - N/A   Clear
4:15 AM 78.8 °F - 59.9 °F 52% 29.97 in 10.0 mi SSE 3.5 mph - N/A   Clear
4:35 AM 78.1 °F - 60.8 °F 55% 29.97 in 10.0 mi SSE 4.6 mph - N/A   Clear
4:55 AM 77.9 °F - 61.2 °F 56% 29.98 in 10.0 mi SSE 5.8 mph - N/A   Clear
5:15 AM 77.4 °F - 61.7 °F 58% 29.98 in 10.0 mi SSE 5.8 mph - N/A   Clear
5:35 AM 77.4 °F - 62.6 °F 60% 29.99 in 10.0 mi SSE 5.8 mph - N/A   Clear
5:55 AM 77.4 °F - 63.0 °F 61% 29.99 in 10.0 mi SSE 3.5 mph - N/A   Clear
6:15 AM 77.0 °F - 63.5 °F 63% 30.00 in 10.0 mi South 3.5 mph - N/A   Clear
6:35 AM 76.5 °F - 64.0 °F 65% 30.00 in 10.0 mi South 3.5 mph - N/A   Clear
6:55 AM 76.5 °F - 64.6 °F 67% 30.01 in 10.0 mi South 3.5 mph - N/A   Clear
7:15 AM 76.3 °F - 65.3 °F 69% 30.02 in 10.0 mi South 4.6 mph - N/A   Clear
7:35 AM 76.8 °F - 65.8 °F 69% 30.02 in 10.0 mi SSW 4.6 mph - N/A   Clear
7:55 AM 77.7 °F - 66.4 °F 68% 30.03 in 10.0 mi South 3.5 mph - N/A   Clear
8:15 AM 79.0 °F - 67.5 °F 68% 30.03 in 10.0 mi SSE 6.9 mph - N/A   Clear
8:35 AM 81.3 °F 84.3 °F 68.5 °F 65% 30.03 in 10.0 mi SSE 9.2 mph - N/A   Clear
8:55 AM 83.7 °F 87.5 °F 69.3 °F 62% 30.03 in 10.0 mi SSW 10.4 mph 17.3 mph N/A   Clear
9:15 AM 85.8 °F 89.4 °F 68.5 °F 56% 30.03 in 10.0 mi SSW 13.8 mph 18.4 mph N/A   Clear
9:35 AM 86.9 °F 90.3 °F 67.8 °F 53% 30.03 in 10.0 mi SSW 15.0 mph - N/A   Clear
9:55 AM 87.8 °F 90.4 °F 66.7 °F 49% 30.03 in 10.0 mi SW 12.7 mph 23.0 mph N/A   Clear
10:15 AM 88.3 °F 90.9 °F 66.4 °F 48% 30.03 in 10.0 mi SSW 12.7 mph 24.2 mph N/A   Clear
10:35 AM 89.6 °F 91.5 °F 65.3 °F 44% 30.03 in 10.0 mi SSW 11.5 mph 21.9 mph N/A   Clear
10:55 AM 90.5 °F 92.5 °F 64.9 °F 43% 30.02 in 10.0 mi SSW 11.5 mph 23.0 mph N/A   Clear
11:15 AM 91.8 °F 92.6 °F 62.8 °F 38% 30.02 in 10.0 mi SW 13.8 mph 23.0 mph N/A   Clear
11:35 AM 93.2 °F 93.3 °F 61.2 °F 34% 30.02 in 10.0 mi SSW 15.0 mph 19.6 mph N/A   Clear
11:55 AM 94.1 °F 93.9 °F 60.4 °F 32% 30.02 in 10.0 mi SSW 15.0 mph 20.7 mph N/A   Clear
12:15 PM 94.8 °F 94.5 °F 59.9 °F 31% 30.02 in 10.0 mi SW 15.0 mph 26.5 mph N/A   Clear
12:35 PM 96.8 °F 96.7 °F 59.4 °F 29% 30.00 in 10.0 mi SSW 12.7 mph 21.9 mph N/A   Clear
12:55 PM 97.3 °F 97.0 °F 59.2 °F 28% 30.00 in 10.0 mi South 11.5 mph 20.7 mph N/A   Clear
1:15 PM 98.6 °F 97.6 °F 57.0 °F 25% 29.99 in 10.0 mi South 9.2 mph 20.7 mph N/A   Clear
1:35 PM 99.7 °F 98.7 °F 56.7 °F 24% 29.98 in 10.0 mi South 11.5 mph 21.9 mph N/A   Clear
1:55 PM 100.6 °F 98.6 °F 53.6 °F 21% 29.97 in 10.0 mi South 11.5 mph 18.4 mph N/A   Clear
2:15 PM 101.7 °F - 51.8 °F 19% 29.97 in 10.0 mi SSW 15.0 mph 21.9 mph N/A   Clear
2:35 PM 102.4 °F 100.2 °F 53.1 °F 19% 29.96 in 10.0 mi SSW 13.8 mph 19.6 mph N/A   Clear
2:55 PM 103.3 °F - 52.0 °F 18% 29.96 in 10.0 mi SW 16.1 mph 24.2 mph N/A   Clear
3:15 PM 103.3 °F - 48.2 °F 16% 29.95 in 10.0 mi WSW 11.5 mph 20.7 mph N/A   Clear
3:35 PM 103.5 °F - 46.8 °F 15% 29.94 in 10.0 mi SW 11.5 mph 18.4 mph N/A   Clear
3:55 PM 103.8 °F - 47.1 °F 15% 29.94 in 10.0 mi WSW 9.2 mph 20.7 mph N/A   Clear
4:15 PM 103.5 °F - 46.4 °F 15% 29.93 in 10.0 mi South 10.4 mph - N/A   Clear
4:35 PM 104.0 °F - 46.0 °F 14% 29.93 in 10.0 mi SW 11.5 mph 19.6 mph N/A   Clear
4:55 PM 103.3 °F - 45.5 °F 14% 29.92 in 10.0 mi SSW 11.5 mph 18.4 mph N/A   Clear
5:15 PM 103.6 °F - 43.5 °F 13% 29.92 in 10.0 mi South 13.8 mph 19.6 mph N/A   Clear
5:35 PM 103.3 °F - 41.4 °F 12% 29.91 in 10.0 mi South 11.5 mph 16.1 mph N/A   Clear
5:55 PM 102.4 °F - 43.2 °F 13% 29.91 in 10.0 mi SSW 11.5 mph - N/A   Clear
6:15 PM 102.6 °F - 42.6 °F 13% 29.91 in 10.0 mi South 11.5 mph 17.3 mph N/A   Clear
6:35 PM 102.2 °F - 41.2 °F 12% 29.90 in 10.0 mi SSW 9.2 mph 18.4 mph N/A   Clear
6:55 PM 101.7 °F - 40.3 °F 12% 29.90 in 10.0 mi SSW 11.5 mph 17.3 mph N/A   Clear
7:15 PM 100.4 °F - 44.1 °F 15% 29.90 in 10.0 mi SSE 13.8 mph 18.4 mph N/A   Clear
7:35 PM 98.2 °F - 48.0 °F 18% 29.89 in 10.0 mi SSE 15.0 mph 20.7 mph N/A   Clear
7:55 PM 96.8 °F - 46.8 °F 18% 29.89 in 10.0 mi SSE 16.1 mph 23.0 mph N/A   Clear
8:15 PM 95.2 °F - 46.2 °F 19% 29.90 in 10.0 mi SSE 13.8 mph 20.7 mph N/A   Clear
8:55 PM 92.1 °F - 45.7 °F 20% 29.91 in 10.0 mi SSE 11.5 mph 16.1 mph N/A   Clear
9:15 PM 90.9 °F - 46.0 °F 21% 29.91 in 10.0 mi SSE 10.4 mph 17.3 mph N/A   Clear
9:35 PM 89.1 °F - 46.9 °F 23% 29.92 in 10.0 mi SSE 6.9 mph - N/A   Clear
9:55 PM 87.1 °F - 47.8 °F 26% 29.92 in 10.0 mi SSE 8.1 mph - N/A   Clear
10:15 PM 85.3 °F - 48.6 °F 28% 29.93 in 10.0 mi SE 8.1 mph - N/A   Clear
10:35 PM 84.6 °F - 49.5 °F 30% 29.93 in 10.0 mi SSE 8.1 mph - N/A   Clear
10:55 PM 83.1 °F - 50.0 °F 32% 29.93 in 10.0 mi South 4.6 mph - N/A   Clear
11:15 PM 83.1 °F - 50.2 °F 32% 29.94 in 10.0 mi SSE 8.1 mph - N/A   Clear
11:35 PM 82.4 °F - 50.5 °F 33% 29.95 in 10.0 mi SSE 8.1 mph - N/A   Clear